Location: LDNL
(36.4545°S, 141.6685°E)
Time: 18:44:14
(UTC+10:00)

Tiros 1 despin weight - Pass Details

Date: 26 January 2022
Orbit: 592 x 639 km, 48.2° (Epoch: 28 May)

Event Time Altitude Azimuth Distance (km) Brightness Sun altitude
Exits shadow 05:52:36 13° 306° (NW) 1,809 ? -9.7°
Maximum altitude 05:56:44 89° 217° (SW) 626 ? -9.0°
Drops below altitude 10° 06:01:18 10° 125° (SE) 1,979 ? -8.2°
Sets 06:03:36 0° 125° (SE) 2,880 ? -7.8°
